AirNav   Everest Fuels
 
 347 users online  

KLOT Lewis University Airport
Chicago/Romeoville, Illinois, USA

GOING TO CHICAGO/ROMEOVILLE?


FAA INFORMATION EFFECTIVE 16 JULY 2020

Location

FAA Identifier: LOT
Lat/Long: 41-36-29.1490N 088-05-47.0030W
41-36.485817N 088-05.783383W
41.6080969,-88.0963897
(estimated)
Elevation: 679 ft. / 207.0 m (surveyed)
Variation: 02W (2000)
From city: 20 miles SW of central business district of the associated city
Time zone: UTC -5 (UTC -6 during Standard Time)
Zip code: 60441

Airport Operations

Airport use: Open to the public
Activation date: 04/1940
Control tower: no
ARTCC: CHICAGO CENTER
FSS: KANKAKEE FLIGHT SERVICE STATION
NOTAMs facility: LOT (NOTAM-D service available)
Attendance: 0700-2100
Wind indicator: lighted
Segmented circle: no
Lights: MIRL RY 02/20 & 09/27 PRESET ON LOW INTST; TO INCR INTST ACTVT - CTAF. ACTVT REIL RYS 02/20 & 09/27 & PAPI RYS 02/ 20 & 09/27 - CTAF.
Beacon: white-green (lighted land airport)
Operates sunset to sunrise.

Airport Communications

CTAF/UNICOM: 122.8
WX AWOS-3: 118.525 (815-588-4802)
CHICAGO APPROACH: 119.35
CHICAGO DEPARTURE: 119.35
IC: 119.35
WX AWOS-3 at JOT (6 nm SW): 119.975 (815-730-9560)
WX AWOS-3 at C09 (18 nm SW): 118.175 (815-941-1815)
WX ASOS at MDW (19 nm NE): PHONE 773-884-4424
WX ASOS at DPA (19 nm N): PHONE 630-587-3668
WX ASOS at ARR (20 nm NW): PHONE 630-466-5622

Nearby radio navigation aids

VOR radial/distance  VOR name  Freq  Var
JOTr068/10.6JOLIET VOR/DME112.3002E
DPAr144/20.4DUPAGE VOR/DME108.4002E
CGTr282/24.3CHICAGO HEIGHTS VORTAC114.2002E
EONr324/24.5PEOTONE VORTAC113.2002E
IKKr341/33.9KANKAKEE VOR/DME111.6000E
OBKr192/37.4NORTHBROOK VOR/DME113.0002W

Airport Services

Fuel available: 100LL JET-A
Parking: hangars and tiedowns
Airframe service: MAJOR
Powerplant service: MAJOR
Bottled oxygen: NONE
Bulk oxygen: NONE

Runway Information

Runway 2/20

Dimensions: 6500 x 100 ft. / 1981 x 30 m
Surface: concrete/grooved, in good condition
Weight bearing capacity: 
Double wheel: 99.0
Runway edge lights: medium intensity
RUNWAY 2  RUNWAY 20
Latitude: 41-35.953873N41-36.993583N
Longitude: 088-06.053815W088-05.715330W
Elevation: 679.0 ft.665.9 ft.
Traffic pattern: leftleft
Runway heading: 015 magnetic, 013 true195 magnetic, 193 true
Markings: nonprecision, in good conditionnonprecision, in good condition
Visual slope indicator: 4-light PAPI on left (3.00 degrees glide path)4-light PAPI on left (3.20 degrees glide path)
Runway end identifier lights: yesyes
Touchdown point: yes, no lightsyes, no lights
Instrument approach: LOC/DME

Runway 9/27

Dimensions: 5500 x 75 ft. / 1676 x 23 m
Surface: asphalt/porous friction courses, in good condition
Weight bearing capacity: 
Single wheel: 20.0
Double wheel: 75.0
Runway edge lights: medium intensity
RUNWAY 9  RUNWAY 27
Latitude: 41-36.482153N41-36.518018N
Longitude: 088-06.266618W088-05.060897W
Elevation: 673.1 ft.665.8 ft.
Traffic pattern: leftleft
Runway heading: 090 magnetic, 088 true270 magnetic, 268 true
Markings: nonprecision, in good conditionnonprecision, in good condition
Visual slope indicator: 4-light PAPI on left (3.00 degrees glide path)4-light PAPI on left (3.00 degrees glide path)
Runway end identifier lights: yesyes
Touchdown point: yes, no lightsyes, no lights
Instrument approach: LOC/DME

Airport Ownership and Management from official FAA records

Ownership: Publicly-owned
Owner: JOLIET REGIONAL PORT DIST
#1 EXECUTIVE TERMINAL, GEORGE MICHAS DRIVE
ROMEOVILLE, IL 60446-7175
Phone 815-838-9497
Manager: CHRIS LAWSON
#1 EXECUTVE TERMINAL, GEORGE MICHAS DRIVE
ROMEOVILLE, IL 60446-7175
Phone 815-838-9497
AMGR ADDNL PHONE NUMBER - 815-838-9512.

Airport Operational Statistics

Aircraft based on the field: 145
Single engine airplanes: 116
Multi engine airplanes: 16
Jet airplanes: 7
Helicopters: 6
    
Aircraft operations: avg 285/day *
58% local general aviation
38% transient general aviation
4% air taxi
* for 12-month period ending 01 August 2019

Additional Remarks

N PARKING RAMP CLSD TO ALL MULTI ENGINE ACFT.
BIRDS ON & INVOF ARPT.
CHICAGO APPROACH CLEARANCE 847-289-0926
FOR CD CTC CHICAGO APCH AT 847-289-0926.
TWYS N1 AND N2 CLSD TO FIXED WING ACFT MORE THAN 6000LB.
BA CONDS ARE NOT RPRTD BTN 2100 - 0600.

Instrument Procedures

NOTE: All procedures below are presented as PDF files. If you need a reader for these files, you should download the free Adobe Reader.

NOT FOR NAVIGATION. Please procure official charts for flight.
FAA instrument procedures published for use from 16 July 2020 at 0901Z to 13 August 2020 at 0900Z.

 
IAPs - Instrument Approach Procedures
RNAV (GPS) RWY 02   download (247KB)
RNAV (GPS) RWY 09   download (247KB)
RNAV (GPS) RWY 20   download (210KB)
RNAV (GPS) RWY 27   download (225KB)
LOC/DME RWY 09   download (219KB)
LOC RWY 02   download (261KB)
NOTE: Special Alternate Minimums apply   download (59KB)
 
Departure Procedures
ADELL SIX (RNAV)   download (231KB)
BLOKR SIX (RNAV)   download (239KB)
CARYN SIX (RNAV)   download (210KB)
DARCY SIX (RNAV)   download (218KB)
ELANR SIX (RNAV)   download (223KB)
OBENE THREE (RNAV)   2 pages: [1] [2] (392KB)
NOTE: Special Take-Off Minimums/Departure Procedures apply   download (201KB)

Other nearby airports with instrument procedures:

1C5 - Bolingbrook's Clow International Airport (5 nm N)
C09 - Morris Municipal Airport-James R. Washburn Field (18 nm SW)
KMDW - Chicago Midway International Airport (19 nm NE)
KDPA - DuPage Airport (19 nm N)
KARR - Aurora Municipal Airport (20 nm NW)
 
Loc | Ops | Rwys | IFR | FBO | Links
Com | Nav | Svcs | Stats | Notes
Area around KLOT (Lewis University Airport)
 
Road maps at: MapQuest Bing Google
 
Aerial photo
WARNING: Photo may not be current or correct
Aerial photo of KLOT (Lewis University Airport)
Photo taken 27-Jul-2012
looking northeast.

Do you have a better or more recent aerial photo of Lewis University Airport that you would like to share? If so, please send us your photo.

 
Sectional chart

 
Airport distance calculator
Flying to Lewis University Airport? Find the distance to fly.

From to KLOT

Sunrise and sunset
Times for 08-Aug-2020
 Local
(UTC-5)
 Zulu
(UTC)
Morning civil twilight05:2510:25
Sunrise05:5610:56
Sunset20:0001:00
Evening civil twilight20:3001:30

Current date and time
Zulu (UTC)  08-Aug-2020 09:10:11
Local (UTC-5)  08-Aug-2020 04:10:11
 
METAR
KLOT 080855Z AUTO 18005KT 10SM CLR 17/14 A3015 RMK AO2 T01670140
KJOT 
6nm SW 
080855Z AUTO 00000KT 10SM CLR 18/15 A3015 RMK AO2 T01820149
KC09 
18nm SW 
080855Z AUTO 17004KT 10SM CLR 16/15 A3014 RMK AO2 T01630151
KMDW 
19nm NE 
080853Z 19004KT 10SM FEW250 21/13 A3014 RMK AO2 SLP197 T02060133 53001
KDPA 
20nm N 
080852Z 17006KT 10SM CLR 18/14 A3014 RMK AO2 SLP200 T01780139 53002
KARR 
20nm NW 
080852Z AUTO 15005KT 10SM CLR 17/14 A3014 RMK AO2 SLP201 T01670144 53002
TAF
KMDW 
19nm NE 
080520Z 0806/0912 18006KT P6SM SCT250 FM081400 19012KT P6SM SCT050 SCT150 FM081700 20012G20KT P6SM SCT050 FM090200 18007KT P6SM SCT050
KDPA 
20nm N 
080520Z 0806/0906 17005KT P6SM SCT250 FM081400 19012KT P6SM SCT050 BKN150 FM081700 19012G21KT P6SM SCT050 FM090100 18007KT P6SM SCT050
NOTAMs
Click for the latest NOTAMs
NOTAMs are issued by the DoD/FAA and will open in a separate window not controlled by AirNav.

 

 
 

FBO, Fuel Providers, and Aircraft Ground Support

  
 Business Name 
 
 Contact 
 
 Services / Description 
 
Fuel Prices
 
Comments
  
Lewis University Airport 815-838-9497
no information available

If you are affiliated with Lewis University Airport and would like to show here your services, contact info, web link, logo, and more, click here
100LL Jet A
FS $4.15 $3.85 
SS $3.80 --- 
 Updated 30-Jul-2020
 
   1 read write
FS=Full service
SS=Self service
Update Fuel Prices
 

Aviation Businesses, Services, and Facilities

  
 Business Name 
 
 Contact 
 
 Services / Description 
 
Distance
 
Comments
  
 Center for Aviation Services at Lewis
312-391-4025
[email]
Aircraft maintenance, Aircraft modifications, Aircraft cleaning / washing / detailing, Aircraft parts

More info about Center for Aviation Services at Lewis
5.5 miles  
   write
 

Would you like to see your business listed on this page?

 If your business provides an interesting product or service to pilots, flight crews, aircraft, or users of the Lewis University Airport, you should consider listing it here.  To start the listing process, click on the button below
 
Add a business
 

Other Pages about Lewis University Airport

www.flylot.com
www.cyberair.com/...
Lewis University
 
Update a link
 
Copyright © AirNav, LLC. All rights reserved. Privacy Policy  Contact